Погода Сиди-Ифнина 2 недели

Агадир, Марокко

01 - 14 марта
  • 01марта
    Сегодня
    +15°
    +19°
    Облачно с прояснениями
    ВремяПогодаТемператураВлажностьДавлениеВетер, м/сВероятность осадков
    01:00Облачно с прояснениями+15°C72 %749 мм1.7 м/с2 %
    04:00Облачно с прояснениями+15°C69 %748 мм2.0 м/с2 %
    07:00Облачно с прояснениями+15°C65 %748 мм2.1 м/с2 %
    10:00Облачно с прояснениями+16°C78 %749 мм1.6 м/с2 %
    13:00Облачно с прояснениями+18°C71 %750 мм2.5 м/с2 %
    16:00Облачно с прояснениями+19°C68 %748 мм2.7 м/с2 %
    19:00Облачно с прояснениями+18°C71 %747 мм2.8 м/с2 %
    22:00Облачно с прояснениями+17°C67 %748 мм1.7 м/с2 %
  • 02марта
    Суббота
    +14°
    +19°
    Практически безоблачно
    ВремяПогодаТемператураВлажностьДавлениеВетер, м/сВероятность осадков
    01:00Облачно с прояснениями+17°C69 %748 мм1.7 м/с2 %
    04:00Пасмурно, сплошная облачность+16°C73 %747 мм1.7 м/с2 %
    07:00Облачно с прояснениями+15°C92 %748 мм2.3 м/с2 %
    10:00Облачно с прояснениями+17°C75 %749 мм1.9 м/с2 %
    13:00Практически безоблачно+18°C74 %750 мм3.0 м/с2 %
    16:00Облачно с прояснениями+18°C72 %749 мм3.4 м/с5 %
    19:00Практически безоблачно+17°C75 %749 мм3.9 м/с3 %
    22:00Ясно и безоблачно+16°C78 %751 мм3.7 м/с3 %
  • 03марта
    Воскресенье
    +14°
    +19°
    Ясно и безоблачно
    ВремяПогодаТемператураВлажностьДавлениеВетер, м/сВероятность осадков
    01:00Ясно и безоблачно+15°C78 %751 мм3.9 м/с3 %
    04:00Ясно и безоблачно+15°C77 %750 мм4.3 м/с8 %
    07:00Ясно и безоблачно+15°C78 %750 мм4.3 м/с6 %
    10:00Ясно и безоблачно+16°C70 %752 мм4.1 м/с4 %
    13:00Ясно и безоблачно+18°C63 %752 мм4.4 м/с4 %
    16:00Ясно и безоблачно+18°C72 %751 мм4.7 м/с5 %
    19:00Ясно и безоблачно+17°C78 %751 мм4.5 м/с13 %
    22:00Ясно и безоблачно+16°C83 %751 мм3.5 м/с23 %
  • 04марта
    Понедельник
    +13°
    +19°
    Ясно и безоблачно
    ВремяПогодаТемператураВлажностьДавлениеВетер, м/сВероятность осадков
    01:00Практически безоблачно+16°C86 %751 мм3.3 м/с29 %
    04:00Ясно и безоблачно+15°C88 %750 мм3.0 м/с20 %
    07:00Практически безоблачно+15°C88 %750 мм2.5 м/с12 %
    10:00Практически безоблачно+16°C81 %751 мм1.7 м/с7 %
    13:00Ясно и безоблачно+18°C76 %752 мм2.8 м/с2 %
    16:00Ясно и безоблачно+18°C72 %750 мм3.3 м/с2 %
    19:00Ясно и безоблачно+17°C77 %751 мм3.4 м/с2 %
    22:00Практически безоблачно+16°C87 %751 мм2.0 м/с2 %
  • 05марта
    Вторник
    +14°
    +19°
    Небольшая облачность
    ВремяПогодаТемператураВлажностьДавлениеВетер, м/сВероятность осадков
    01:00Практически безоблачно+15°C93 %751 мм2.0 м/с5 %
    04:00Небольшая облачность+14°C93 %750 мм2.2 м/с5 %
    07:00Ясно и безоблачно+14°C80 %750 мм2.3 м/с2 %
    10:00Ясно и безоблачно+16°C66 %751 мм1.4 м/с2 %
    13:00Небольшая облачность+18°C76 %751 мм2.5 м/с2 %
    16:00Ясно и безоблачно+18°C78 %750 мм2.7 м/с2 %
    19:00Ясно и безоблачно+17°C80 %750 мм2.8 м/с2 %
    22:00Ясно и безоблачно+15°C86 %751 мм1.8 м/с2 %
Мы используем cookies
Соглашаюсь